[[{"header":{"parameterUnit":"m.s-1","parameterCategory":1,"la1":30.2991,"la2":30.254,"lo1":-89.0895,"lo2":-89.0444,"dy":0.0017,"dx":0.0017,"nx":28,"ny":28,"refTime":"2023-09-28T09:00:00:Z","depth":0,"parameterNumber":2,"parameterNumberName":"U-component_of_WINDS"},"data":[0,0,0,0,0,0,0,0,0,0,0,0,0,0,0,0,0,0,0,0,0,0,0,0,0,0,0,0,0,0,0,0,0,0,0,0,0,0,0,0,0,0,0,0,0,0,0,0,0,0,0,0,0,0,0,0,0,0,-1.3247,-1.3247,0,-1.3267,-1.3267,-1.3268,-1.3192,-1.3189,-1.3187,-1.3185,-1.3208,-1.321,-1.3213,0,0,0,0,0,0,0,0,0,0,0,0,0,-1.3145,-1.3147,-1.3247,-1.3247,-1.3248,-1.3267,-1.3267,-1.3268,-1.3192,-1.3189,-1.3187,-1.3184,-1.3207,-1.321,-1.3213,0,0,0,0,0,0,0,0,0,0,0,0,0,-1.318,-1.3148,-1.3247,-1.3212,-1.3209,-1.3267,-1.3267,-1.3268,-1.3193,-1.3189,-1.3186,-1.3183,-1.3206,-1.321,-1.3214,-1.3307,0,0,-1.3226,-1.3228,0,0,0,0,0,0,0,0,-1.3178,-1.3184,-1.3217,-1.3215,-1.3212,-1.3223,-1.324,-1.3281,-1.3194,-1.3199,-1.3185,-1.3181,-1.3216,-1.3219,-1.323,-1.3308,-1.3309,-1.3227,-1.3229,-1.3231,-1.3232,0,0,0,0,0,0,0,-1.3176,-1.3182,-1.3255,-1.3218,-1.3214,-1.3196,-1.3197,-1.3247,-1.3226,-1.3198,-1.3193,-1.3196,-1.3214,-1.3226,-1.323,-1.3309,-1.3226,-1.323,-1.3233,-1.3234,-1.3463,-1.3467,0,0,0,0,0,0,-1.3178,-1.3181,-1.3254,-1.3256,-1.3186,-1.3201,-1.3202,-1.3223,-1.3226,-1.3223,-1.3199,-1.3193,-1.3221,-1.3225,-1.3231,-1.3339,-1.3231,-1.3235,-1.3237,-1.346,-1.3464,-1.3468,0,0,0,0,0,0,-1.3176,-1.3185,-1.3254,-1.3217,-1.3224,-1.3206,-1.323,-1.3225,-1.3238,-1.3226,-1.3222,-1.3216,-1.3219,-1.3225,-1.3288,-1.3338,-1.3236,-1.324,-1.3455,-1.3461,-1.3466,-1.3556,0,0,0,0,0,0,-1.3173,-1.3185,-1.3219,-1.3218,-1.3226,-1.331,-1.3233,-1.3228,-1.3245,-1.3236,-1.3241,-1.3238,-1.3216,-1.3282,-1.3292,-1.3342,-1.3243,-1.3451,-1.3458,-1.3464,-1.3549,-1.3564,-1.3578,0,0,0,0,0,-1.317,-1.3245,-1.3221,-1.3231,-1.3269,-1.3313,-1.3318,-1.3291,-1.3249,-1.3284,-1.3276,-1.3238,-1.3332,-1.3289,-1.33,-1.3352,-1.3447,-1.3456,-1.3464,-1.3542,-1.3561,-1.3577,0,0,0,0,0,0,-1.3253,-1.3244,-1.3218,-1.3295,-1.3305,-1.33,-1.3344,-1.3312,-1.3335,-1.3327,-1.3293,-1.3295,-1.3364,-1.3364,-1.3317,-1.3442,-1.3382,-1.3393,-1.3439,-1.3456,-1.3471,-1.3469,-1.3247,0,0,0,0,0,-1.328,-1.3316,-1.3307,-1.3375,-1.3382,-1.3362,-1.338,-1.3358,-1.3368,-1.3373,-1.337,-1.3381,-1.3413,-1.3435,-1.3464,-1.3549,-1.3548,-1.359,-1.3604,-1.3616,-1.3625,-1.367,-1.3688,-1.3495,-1.3495,-1.3495,0,0,-1.3337,-1.3336,-1.3361,-1.3392,-1.3397,-1.3436,-1.3366,-1.341,-1.3438,-1.338,-1.3438,-1.3437,-1.3448,-1.3522,-1.3555,-1.3525,-1.3679,-1.3626,-1.3636,-1.3639,-1.368,-1.3698,-1.3715,-1.35,-1.3499,-1.3499,0,0,-1.346,-1.3463,-1.352,-1.3527,-1.3536,-1.3523,-1.3537,-1.3537,-1.3533,-1.3591,-1.3548,-1.3581,-1.3637,-1.3646,-1.3659,-1.3785,-1.375,-1.3795,-1.387,-1.3914,-1.3929,-1.3942,-1.3987,-1.4003,-1.3805,-1.3805,-1.3805,0,-1.3529,-1.3585,-1.3554,-1.36,-1.3615,-1.3563,-1.362,-1.3629,-1.3648,-1.3659,-1.3625,-1.3694,-1.3697,-1.3773,-1.3803,-1.3815,-1.383,-1.3794,-1.3929,-1.3942,-1.3954,-1.3996,-1.4013,-1.381,-1.381,-1.3809,-1.3809,0,-1.3669,-1.3709,-1.3754,-1.3772,-1.3792,-1.3844,-1.3821,-1.3845,-1.3822,-1.3812,-1.3872,-1.3875,-1.3903,-1.3919,-1.3897,-1.3992,-1.3973,-1.3935,-1.3874,-1.3978,-1.4017,-1.4033,-1.3818,-1.3816,-1.3815,-1.3813,0,0,-1.3845,-1.3845,-1.3862,-1.3869,-1.3875,-1.3905,-1.3955,-1.3982,-1.4003,-1.4018,-1.4058,-1.4107,-1.4071,-1.4085,-1.4064,-1.4102,-1.4201,-1.4059,-1.4059,-1.4085,-1.4305,-1.4333,-1.4352,-1.4179,-1.4182,-1.4184,-1.4304,0,-1.3964,-1.4048,-1.4022,-1.4107,-1.4142,-1.4094,-1.4137,-1.4146,-1.4138,-1.4168,-1.4159,-1.4194,-1.4145,-1.4153,-1.4189,-1.4182,-1.4245,-1.4173,-1.4216,-1.4218,-1.4214,-1.4372,-1.4402,-1.4515,-1.4319,-1.4321,-1.4323,0,-1.4115,-1.4135,-1.4223,-1.4223,-1.4237,-1.4276,-1.4298,-1.4327,-1.4336,-1.4328,-1.4343,-1.4314,-1.4363,-1.4303,-1.437,-1.4322,-1.4338,-1.4337,-1.4341,-1.4343,-1.4277,-1.4378,-1.455,-1.4567,-1.4347,-1.4345,-1.4343,0,-1.4233,-1.4282,-1.434,-1.4348,-1.435,-1.4379,-1.4381,-1.4386,-1.4404,-1.4424,-1.4435,-1.4461,-1.4475,-1.4495,-1.4474,-1.4432,-1.4544,-1.4483,-1.4539,-1.4539,-1.4564,-1.4563,-1.474,-1.4576,-1.4576,-1.4576,-1.4575,0,-1.4369,-1.4425,-1.4393,-1.443,-1.4491,-1.446,-1.4522,-1.4519,-1.4524,-1.4559,-1.4519,-1.4553,-1.4523,-1.4554,-1.4538,-1.4596,-1.4603,-1.4597,-1.4592,-1.4601,-1.4601,-1.461,-1.4602,-1.458,-1.4579,-1.4578,-1.4577,0,-1.451,-1.4492,-1.4553,-1.4549,-1.4549,-1.4594,-1.4591,-1.4625,-1.4614,-1.4659,-1.4668,-1.4652,-1.4686,-1.4667,-1.4703,-1.4692,-1.4767,-1.4752,-1.4764,-1.4759,-1.4816,-1.4811,-1.5005,-1.5029,-1.4851,-1.4853,-1.4854,0,-1.4598,-1.4639,-1.464,-1.466,-1.4665,-1.4698,-1.4715,-1.4687,-1.4707,-1.4721,-1.4753,-1.4784,-1.4807,-1.4865,-1.4857,-1.4884,-1.4869,-1.4935,-1.4873,-1.488,-1.4869,-1.4867,-1.487,-1.4948,-1.495,-1.4951,-1.4953,0,-1.4755,-1.4743,-1.477,-1.4793,-1.4815,-1.4832,-1.4846,-1.4865,-1.4837,-1.4862,-1.4897,-1.4915,-1.4951,-1.4983,-1.5006,-1.5009,-1.4977,-1.4973,-1.4987,-1.4995,-1.5,-1.4998,-1.4797,-1.4968,-1.4967,-1.4965,-1.4965,-1.4964,-1.4871,-1.4906,-1.4911,-1.4942,-1.4949,-1.4963,-1.4994,-1.4988,-1.5016,-1.5042,-1.5025,-1.5065,-1.5074,-1.5101,-1.5108,-1.514,-1.5114,-1.5135,-1.514,-1.5145,-1.5153,-1.4996,-1.5145,-1.5144,-1.5144,-1.5143,-1.5143,0,-1.5026,-1.5027,-1.5055,-1.5075,-1.51,-1.5067,-1.5081,-1.5103,-1.5139,-1.5149,-1.5173,-1.5213,-1.5243,-1.5237,-1.5265,-1.5291,-1.5277,-1.5299,-1.5297,-1.5298,-1.5175,-1.516,-1.531,-1.531,-1.531,-1.531,-1.531,-1.531,-1.5108,-1.5165,-1.5154,-1.5214,-1.5215,-1.5254,-1.5264,-1.5277,-1.5285,-1.5331,-1.5355,-1.5351,-1.5355,-1.5382,-1.5409,-1.5406,-1.5418,-1.5446,-1.5438,-1.5323,-1.5307,-1.5291,-1.5276,-1.5449,-1.5449,-1.5558,-1.5559,-1.556]},{"header":{"parameterUnit":"m.s-1","parameterCategory":1,"la1":30.2991,"la2":30.254,"lo1":-89.0895,"lo2":-89.0444,"dy":0.0017,"dx":0.0017,"nx":28,"ny":28,"refTime":"2023-09-28T09:00:00:Z","depth":0,"parameterNumber":3,"parameterNumberName":"V-component_of_WINDS"},"data":[0,0,0,0,0,0,0,0,0,0,0,0,0,0,0,0,0,0,0,0,0,0,0,0,0,0,0,0,0,0,0,0,0,0,0,0,0,0,0,0,0,0,0,0,0,0,0,0,0,0,0,0,0,0,0,0,0,0,-0.8767,-0.8768,0,-0.8807,-0.8807,-0.8808,-0.8828,-0.8828,-0.8828,-0.8828,-0.8869,-0.887,-0.8871,0,0,0,0,0,0,0,0,0,0,0,0,0,-0.871,-0.8711,-0.8767,-0.8768,-0.8768,-0.8807,-0.8807,-0.8808,-0.8828,-0.8828,-0.8828,-0.8828,-0.8869,-0.887,-0.8871,0,0,0,0,0,0,0,0,0,0,0,0,0,-0.8741,-0.8712,-0.8767,-0.8783,-0.8785,-0.8806,-0.8807,-0.8808,-0.8828,-0.8828,-0.8828,-0.8828,-0.8868,-0.887,-0.8871,-0.888,0,0,-0.8876,-0.8877,0,0,0,0,0,0,0,0,-0.8739,-0.8743,-0.878,-0.8782,-0.8784,-0.8813,-0.8802,-0.8832,-0.8828,-0.8812,-0.8828,-0.8828,-0.885,-0.8853,-0.8861,-0.8882,-0.8884,-0.8876,-0.8877,-0.8878,-0.8878,0,0,0,0,0,0,0,-0.8737,-0.8741,-0.8783,-0.8781,-0.8783,-0.8788,-0.8793,-0.8808,-0.883,-0.8813,-0.8815,-0.8819,-0.8851,-0.8859,-0.8862,-0.8884,-0.8876,-0.8878,-0.8879,-0.8879,-0.8915,-0.8915,0,0,0,0,0,0,-0.8732,-0.874,-0.8782,-0.8784,-0.8761,-0.8789,-0.8794,-0.8803,-0.883,-0.8834,-0.8819,-0.882,-0.8856,-0.886,-0.8863,-0.8875,-0.8878,-0.8879,-0.888,-0.8915,-0.8915,-0.8915,0,0,0,0,0,0,-0.8731,-0.8736,-0.878,-0.8762,-0.8768,-0.879,-0.88,-0.8804,-0.8812,-0.8835,-0.8839,-0.8823,-0.8856,-0.8861,-0.8876,-0.8877,-0.888,-0.8882,-0.8915,-0.8915,-0.8915,-0.8899,0,0,0,0,0,0,-0.8729,-0.8735,-0.8739,-0.8762,-0.8769,-0.8792,-0.8801,-0.8805,-0.8815,-0.8816,-0.8839,-0.8843,-0.8857,-0.8873,-0.8877,-0.8879,-0.8883,-0.8915,-0.8915,-0.8915,-0.8899,-0.8898,-0.8897,0,0,0,0,0,-0.8727,-0.8733,-0.8739,-0.8744,-0.8774,-0.8792,-0.8796,-0.8811,-0.8815,-0.8818,-0.8833,-0.8842,-0.8876,-0.8874,-0.8879,-0.8881,-0.8915,-0.8915,-0.8915,-0.89,-0.8898,-0.8897,0,0,0,0,0,0,-0.871,-0.8737,-0.8743,-0.8757,-0.8772,-0.8795,-0.8801,-0.881,-0.8824,-0.8825,-0.8844,-0.8849,-0.8862,-0.8873,-0.8871,-0.8891,-0.8896,-0.8897,-0.8883,-0.8882,-0.8881,-0.8878,-0.8884,0,0,0,0,0,-0.8708,-0.872,-0.8742,-0.8752,-0.8759,-0.8779,-0.8787,-0.8797,-0.8814,-0.882,-0.8836,-0.8852,-0.8866,-0.8875,-0.8889,-0.8901,-0.8906,-0.8905,-0.8904,-0.8903,-0.8903,-0.891,-0.891,-0.8914,-0.8914,-0.8914,0,0,-0.8703,-0.8719,-0.8726,-0.8749,-0.8762,-0.8774,-0.8784,-0.8796,-0.8805,-0.8822,-0.8837,-0.8849,-0.8868,-0.8881,-0.8888,-0.8891,-0.8903,-0.8903,-0.8902,-0.8903,-0.891,-0.891,-0.8909,-0.8914,-0.8914,-0.8914,0,0,-0.8701,-0.8715,-0.8724,-0.8736,-0.8756,-0.8768,-0.877,-0.8792,-0.8801,-0.8816,-0.8828,-0.884,-0.8863,-0.8876,-0.8886,-0.8887,-0.8897,-0.8891,-0.8886,-0.8893,-0.8892,-0.8892,-0.8893,-0.8893,-0.8892,-0.8892,-0.8892,0,-0.8693,-0.8712,-0.8728,-0.8739,-0.8749,-0.8764,-0.8774,-0.8786,-0.8808,-0.8815,-0.8818,-0.8848,-0.8861,-0.8878,-0.8878,-0.8885,-0.8888,-0.8889,-0.8891,-0.8891,-0.8891,-0.8892,-0.8892,-0.8891,-0.8891,-0.8891,-0.8891,0,-0.8701,-0.8714,-0.8719,-0.874,-0.8751,-0.8761,-0.8779,-0.8787,-0.8797,-0.8809,-0.8824,-0.884,-0.8858,-0.8863,-0.8872,-0.888,-0.8881,-0.8887,-0.8893,-0.889,-0.889,-0.8891,-0.889,-0.889,-0.8891,-0.8891,0,0,-0.869,-0.8719,-0.8721,-0.8731,-0.8752,-0.8762,-0.8773,-0.879,-0.8797,-0.8812,-0.8822,-0.8841,-0.8847,-0.8858,-0.8869,-0.8874,-0.8874,-0.888,-0.8881,-0.8878,-0.8884,-0.8879,-0.8879,-0.888,-0.888,-0.8881,-0.8882,0,-0.8691,-0.8712,-0.8726,-0.8741,-0.8752,-0.8767,-0.8776,-0.8791,-0.8802,-0.8814,-0.8826,-0.884,-0.8846,-0.8853,-0.8859,-0.8873,-0.8876,-0.8873,-0.889,-0.889,-0.8885,-0.888,-0.8875,-0.8875,-0.8883,-0.8883,-0.8883,0,-0.8696,-0.871,-0.8725,-0.8745,-0.8751,-0.8759,-0.8775,-0.8786,-0.8803,-0.8811,-0.8822,-0.8833,-0.8845,-0.8849,-0.8866,-0.8864,-0.8872,-0.8879,-0.888,-0.8882,-0.8886,-0.8882,-0.8876,-0.8876,-0.8883,-0.8883,-0.8883,0,-0.8686,-0.8709,-0.8721,-0.8729,-0.8752,-0.8758,-0.8768,-0.8784,-0.8793,-0.8807,-0.8813,-0.8829,-0.8837,-0.8849,-0.8864,-0.8866,-0.8879,-0.8885,-0.8886,-0.8886,-0.8889,-0.8888,-0.8884,-0.8893,-0.8893,-0.8893,-0.8893,0,-0.8686,-0.8695,-0.8717,-0.8724,-0.8735,-0.8751,-0.8761,-0.8772,-0.8786,-0.8796,-0.881,-0.8819,-0.8838,-0.8849,-0.8861,-0.8873,-0.8877,-0.8883,-0.8886,-0.8882,-0.8881,-0.8888,-0.8888,-0.8893,-0.8893,-0.8893,-0.8893,0,-0.8677,-0.8692,-0.8706,-0.8727,-0.8732,-0.8739,-0.8757,-0.8765,-0.8777,-0.8789,-0.8793,-0.8812,-0.8825,-0.8841,-0.8861,-0.8869,-0.888,-0.8884,-0.8874,-0.8876,-0.8876,-0.8876,-0.8876,-0.8877,-0.8885,-0.8885,-0.8885,0,-0.8676,-0.8683,-0.8704,-0.8712,-0.8721,-0.8733,-0.8742,-0.8758,-0.8767,-0.8786,-0.8791,-0.8806,-0.8819,-0.884,-0.8856,-0.8871,-0.8875,-0.8874,-0.8878,-0.8873,-0.8875,-0.8875,-0.8875,-0.8874,-0.8873,-0.8873,-0.8873,0,-0.8672,-0.8679,-0.8692,-0.8706,-0.8717,-0.8729,-0.8742,-0.8748,-0.8766,-0.8775,-0.8789,-0.8799,-0.8819,-0.8833,-0.885,-0.886,-0.887,-0.8872,-0.8873,-0.8869,-0.8863,-0.8866,-0.8872,-0.8872,-0.8872,-0.8872,-0.8872,-0.8872,-0.8668,-0.8674,-0.869,-0.8703,-0.8715,-0.8726,-0.8735,-0.8747,-0.8759,-0.8776,-0.8784,-0.8798,-0.8814,-0.8837,-0.8847,-0.8858,-0.8862,-0.8863,-0.8864,-0.8864,-0.8863,-0.8861,-0.8861,-0.8861,-0.8862,-0.8862,-0.8862,0,-0.8665,-0.8675,-0.8687,-0.8705,-0.8715,-0.8722,-0.8737,-0.8745,-0.8757,-0.8771,-0.8783,-0.8799,-0.8813,-0.8829,-0.8844,-0.885,-0.8854,-0.8853,-0.8853,-0.8855,-0.8859,-0.8856,-0.8849,-0.8849,-0.8849,-0.8849,-0.8849,-0.8849,-0.8665,-0.8676,-0.8685,-0.8702,-0.8713,-0.8727,-0.8734,-0.8745,-0.8756,-0.8773,-0.8784,-0.8795,-0.8809,-0.8825,-0.8838,-0.8843,-0.8848,-0.8845,-0.8851,-0.8854,-0.8855,-0.8856,-0.8854,-0.8846,-0.8846,-0.8846,-0.8846,-0.8846]}]]